Powrót do katalogu

COSMOS 970 DEB

AktywnyLEO
NORAD 10890·DEBRIS·🇷🇺 Russia

Wystrzelony Dec 21, 1977 z Baikonur Cosmodrome

Loading…

Następne Przeloty (najbliższe 24 godziny)

TLE

ŚwieżeSource: Space-Track

Epoka: Sep 14, 2026, 08:36 UTC

1 10890U 77121AM  26257.35885310  .00000148  00000-0  23608-3 0  9996
2 10890  65.7788  20.2373 0141197 303.4483  87.4932 13.71438136431745

Śledź COSMOS 970 DEB w czasie rzeczywistym z AllMySat

Download on the App Store